Location: Sternwarte auf dem Internationalen Platz Vogelsang IP
(50.5721°N, 6.4398°E)
Time: 22:03:35
(UTC+01:00)

Transit 2A Rocket - Pass Details

Date: 14 December 2025
Orbit: 581 x 903 km, 66.7° (Epoch: 12 January)

Event Time Altitude Azimuth Distance (km) Brightness Sun altitude
Rises 16:02:33 0° 322° (NW) 3,533 8.4 2.5°
Reaches altitude 10° 16:05:11 10° 328° (NNW) 2,591 7.7 2.2°
Maximum altitude 16:11:03 48° 42° (NE) 1,154 5.6 1.5°
Drops below altitude 10° 16:16:41 10° 117° (ESE) 2,491 7.4 0.8°
Sets 16:19:11 0° 123° (ESE) 3,386 8.1 0.5°
